Regional Weather Roundup
Issued by NWS

Home | Current Version | Previous Version | Text Only | Print | Product List | Glossary On
Versions: 1 2 3 4 5 6 7 8 9 10 11 12 13 14 15 16 17 18 19 20 21 22 23 24 25 26 27 28 29 30 31 32 33 34 35 36 37 38 39 40 41 42 43 44 45 46 47 48 49 50
299
ASUS43 KLMK 210402
RWRKY
KENTUCKY REGIONAL WEATHER ROUNDUP
NATIONAL WEATHER SERVICE LOUISVILLE KY
1200 AM EDT THU SEP 21 2017

NOTE "FAIR" INDICATES FEW OR NO CLOUDS BELOW 12,000 FEET
WITH NO SIGNIFICANT WEATHER AND/OR OBSTRUCTIONS TO VISIBILITY.

KYZ001>023-026-027-061>063-070>075-210500-
WESTERN AND SOUTH CENTRAL KENTUCKY

CITY           SKY/WX    TMP DP  RH WIND       PRES   REMARKS
PADUCAH        CLEAR     76  69  79 S7        29.98R
HENDERSON      CLEAR     75  71  87 S5        29.99R
OWENSBORO      CLEAR     75  71  87 CALM      30.00R
HOPKINSVILLE   CLEAR     75  71  86 CALM      30.01R
BOWLING GREEN  CLEAR     73  71  93 E3        30.02S
GLASGOW        CLEAR     67  67 100 CALM      30.04S
$$

KYZ024-025-028>034-038-045-046-053-210500-
NORTH CENTRAL KENTUCKY

CITY           SKY/WX    TMP DP  RH WIND       PRES   REMARKS
LOUISVILLE/SDF CLEAR     77  70  79 SE7       30.00F
LOUISVILLE/LOU CLEAR     74  71  91 CALM      30.01F
FORT KNOX      CLEAR     72  72  99 CALM      30.01S FOG
$$

KYZ035>037-039>044-047>052-055>060-089>105-210500-
NORTHEAST KENTUCKY

CITY           SKY/WX    TMP DP  RH WIND       PRES   REMARKS
LEXINGTON      CLEAR     71  67  87 SE5       30.05S
COVINGTON      CLEAR     72  69  90 S5        30.03S
FRANKFORT      CLEAR     69  66  90 CALM      30.03S
$$

KYZ054-064>069-076>088-106>120-210500-
SOUTHEAST KENTUCKY

CITY           SKY/WX    TMP DP  RH WIND       PRES   REMARKS
JACKSON        CLEAR     71  66  84 SE3       30.08S
LONDON         CLEAR     69  67  93 CALM      30.08R
SOMERSET       NOT AVBL
MIDDLESBORO    CLEAR     65  65 100 CALM      30.10S
MONTICELLO     CLOUDY    64  63  96 W9        30.08F FOG
$$





USA.gov is the U.S. government's official web portal to all federal, state and local government web resources and services.